Location: Goettingen
(51.5300°N, 9.9433°E)
Time: 17:27:51
(UTC+02:00)

ISS - Pass Details

Date: 15 May 2026
Orbit: 414 x 424 km, 51.6° (Epoch: 13 May)

Event Time Altitude Azimuth Distance (km) Brightness Sun altitude
Rises 00:08:52 0° 282° (WNW) 2,355 0.4 -18.1°
Reaches altitude 10° 00:10:58 10° 279° (W) 1,492 -0.7 -18.2°
Maximum altitude 00:14:17 64° 197° (SSW) 463 -3.9 -18.4°
Enters shadow 00:14:19 64° 195° (SSW) 463 -3.9 -18.4°
